Preview of NWS' New Version of Forecast
This preview is not operational and should not be used for support decisions.

Regional Weather Roundup (RWR)

Issued by National Weather Service (NWS)

                            
000
ASUS43 KDTX 161110
RWRMI 
MICHIGAN HOURLY REGIONAL WEATHER ROUNDUP
NATIONAL WEATHER SERVICE DETROIT/PONTIAC MI
700 AM EDT SUN JUN 16 2019

NOTE: "FAIR" INDICATES FEW OR NO CLOUDS BELOW 12,000 FEET WITH NO
SIGNIFICANT WEATHER AND/OR OBSTRUCTION TO VISIBILITY.

MIZ047>049-052>055-059>063-066>070-074>076-081>083-161200-
SOUTHEAST LOWER MICHIGAN
  
CITY           SKY/WX    TMP DP  RH WIND       PRES   REMARKS
ADRIAN         CLOUDY    57  57 100 E8        29.81R FOG              
ALMA           CLOUDY    58  46  63 NE5       29.86R                  
ANN ARBOR      CLOUDY    58  57  97 NE8       29.80R FOG              
BAD AXE        PTSUNNY   51  45  81 NE7       29.85F                  
CARO           CLOUDY    54  46  74 NE3       29.85R                  
DETROIT CITY   CLOUDY    57  53  86 N5        29.80S                  
DETROIT        CLOUDY    59  55  87 NE6       29.80R                  
FLINT          CLOUDY    57  45  64 NE9       29.84R                  
GROSSE ILE     CLOUDY    59  57  96 NE8       29.78S FOG              
HILLSDALE      CLOUDY    60  59  97 E6        29.80R FOG              
HOWELL         CLOUDY    55  48  76 NE6       29.82R                  

CITY           SKY/WX    TMP DP  RH WIND       PRES   REMARKS
JACKSON        LGT RAIN  59  59 100 NE5       29.80R FOG              
LAMBERTVILLE   FOG       60  60 100 SE3       29.79R VSB 3/4          
LANSING        CLOUDY    56  49  77 NE7       29.83R                  
LAPEER         CLOUDY    55  46  72 CALM      29.84R                  
MASON          CLOUDY    56  55  94 NE5       29.82R                  
MONROE         CLOUDY    60  59  98 CALM      29.79R FOG              
MT. CLEMENS    CLOUDY    55  55 100 N7        29.79F                  
PONTIAC        CLOUDY    55  47  74 NE7       29.80S                  
PORT HOPE        N/A     51  44  77 NE6       29.86R                  
PORT HURON     CLOUDY    55  50  82 N6        29.82S                  
TRI CITIES     CLOUDY    57  49  74 NE9       29.86R                  
MIDLAND        CLOUDY    56  47  71 NE5       29.86R                  
TROY           CLOUDY    56  46  68 NE8       29.83S                  
SAGINAW HB     CLOUDY    55  46  71 NE6       29.85R                  
$$
MIZ043>046-050>051-056>058-064>065-071>073-077>080-161200-
SOUTHWEST LOWER MICHIGAN
  
CITY           SKY/WX    TMP DP  RH WIND       PRES   REMARKS
BATTLE CREEK   LGT RAIN  60  59  96 NE8       29.80R FOG              
BENTON HARBOR  LGT RAIN  66  64  93 E7        29.76R FOG              
BIG RAPIDS     CLOUDY    56  45  65 E7        29.86R                  
COLDWATER      CLOUDY    64  64 100 CALM      29.79R FOG              
FREMONT        CLOUDY    58  40  51 E9        29.83R                  
HOLLAND        CLOUDY    60  55  83 E10       29.80R                  
GRAND RAPIDS   CLOUDY    57  46  66 E12       29.82R                  
IONIA          CLOUDY    56  43  60 NE7       29.84R                  
KALAMAZOO      LGT RAIN  62  60  93 E5        29.79R                  
LUDINGTON      CLOUDY    56  51  81 E5        29.84R                  
MARSHALL       LGT RAIN  60  60 100 NE6       29.80R                  
MOUNT PLEASANT CLOUDY    56  46  69 NE8       29.86R                  
MUSKEGON       CLOUDY    61  44  53 E12       29.81R                  
SOUTH HAVEN    HVY RAIN  63  62  97 E7        29.77R                  
$$
MIZ016>042-161200-
NORTHERN LOWER MICHIGAN
  
CITY           SKY/WX    TMP DP  RH WIND       PRES   REMARKS
ALPENA         FAIR      47  43  86 NW3       29.91R                  
BEAVER ISLAND  FAIR      48  45  88 E8        29.93R                  
BELLAIRE       FAIR      43  41  93 CALM      29.90F                  
CADILLAC       FAIR      53  48  85 E8        29.86R                  
CHARLEVOIX     FAIR      49  44  81 NE6       29.93F                  
FRANKFORT      FAIR      55  42  59 NE7       29.87R                  
GAYLORD        FAIR      46  41  82 NE7       29.90R                  
GRAYLING       FAIR      41  40  99 CALM      29.89R                  
HARBOR SPRINGS FAIR      47  46  96 E5        29.92R                  
HOUGHTON LAKE  FAIR      45  40  82 NE6       29.89R                  
MANISTEE       CLOUDY    54  50  86 E6        29.85R                  
OSCODA         FAIR      42  42 100 NW3       29.89R                  
PELLSTON       FAIR      41  40  96 CALM      29.94R                  
ROGERS CITY    FAIR      46  44  96 CALM      29.94R                  
TRAVERSE CITY  MOCLDY    48  45  89 CALM      29.88R                  
$$
MIZ007>008-015-161200-
EASTERN UPPER MICHIGAN
  
CITY           SKY/WX    TMP DP  RH WIND       PRES   REMARKS
KINROSS        FAIR      47  44  90 NE3       29.95R                  
MACKINAC ISLAN FAIR      48  48 100 NE12      29.93R                  
NEWBERRY       FAIR      39  37  93 N3        29.95R                  
S. S. MARIE    FAIR      46  44  93 CALM      29.94R                  
MUNISING         N/A     42  39  89 CALM      29.95R                  
$$
MIZ004>006-011>014-085-161200-
CENTRAL UPPER MICHIGAN
  
CITY           SKY/WX    TMP DP  RH WIND       PRES   REMARKS
MANISTIQUE     FAIR      44  41  89 NE5       29.93R                  
ESCANABA       FAIR      46  41  82 CALM      29.92S                  
MENOMINEE      FAIR      48  44  86 NE7       29.91S                  
SAWYER-GWINN   CLEAR     45  37  76 NE7       29.94R                  
$$
MIZ001>003-009>011-084-161200-
WESTERN UPPER MICHIGAN
  
CITY           SKY/WX    TMP DP  RH WIND       PRES   REMARKS
IRON MOUNTAIN  FAIR      47  38  71 NW3       29.92R                  
HOUGHTON       FAIR      47  41  80 E9        29.95R                  
COPPER HARBOR    N/A     46  43  89 CALM      29.98R                  
IRONWOOD       CLOUDY    49  41  74 E5        29.94S                  
$$

ABBREVIATIONS USED IN REMARKS
   TC - TEMPERATURE IN CELSIUS
  WCI - WIND CHILL INDEX
   HX - HEAT INDEX
  VSB - VISIBILITY